Tracking 30685 objects as of 17-Jun-2025
HD Live streaming from Space Station
objects crossing your sky now

LANDSAT 4

Track LANDSAT 4 now!
10-day predictions
LANDSAT 4 is classified as:


NORAD ID: 13367
Int'l Code: 1982-072A
Perigee: 362.8 km
Apogee: 370.4 km
Inclination: 98.2 °
Period: 91.7 minutes
Semi major axis: 6737 km
RCS: 7.754 m2 (large)
Launch date: July 16, 1982
Source: United States (US)
Launch site: AIR FORCE WESTERN TEST RANGE (AFWTR)
Your satellite tracking list
Your tracking list is empty




NASA's NSSDC Master Catalog

Two Line Element Set (TLE):
1 13367U 82072A   25168.08152181  .00065756  00000-0  54987-3 0  9992
2 13367  98.1813 289.6600 0005682 218.5962 141.4892 15.69796824329816
Source of the keplerian elements: AFSPC